• In United Kingdom
  • List of Countries
  • For 7 days
  • Water Temperature
  • Satellite Maps
  • Weather Map
  • Weather Widgets
  • user-avatar
    Login

    Hourly Weather Melbourne

    Today, 21 July, Friday

    Time Temperature Precipitation Wind Pressure Humidity
    00:00 +6°C° 0 mm 2 mps 765 mmHg 88%
    01:00 +6°C° 0 mm 2 mps 765 mmHg 90%
    02:00 +7°C° 0 mm 1 mps 765 mmHg 91%
    03:00 +6°C° 0 mm 1 mps 765 mmHg 92%
    04:00 +6°C° 0 mm 1 mps 765 mmHg 93%
    05:00 +6°C° 0 mm 1 mps 766 mmHg 93%
    06:00 +6°C° 0 mm 1 mps 766 mmHg 93%
    07:00 +6°C° 0 mm 1 mps 766 mmHg 93%
    08:00 +7°C° 0 mm 1 mps 766 mmHg 89%
    09:00 +9°C° 0 mm 1 mps 766 mmHg 84%
    10:00 +10°C° 0 mm 1 mps 767 mmHg 79%
    11:00 +12°C° 0 mm 1 mps 766 mmHg 71%
    12:00 +13°C° 0 mm 1 mps 766 mmHg 63%
    13:00 +15°C° 0 mm 1 mps 765 mmHg 54%
    14:00 +15°C° 0 mm 1 mps 765 mmHg 55%
    15:00 +15°C° 0 mm 1 mps 765 mmHg 56%
    16:00 +15°C° 0 mm 2 mps 765 mmHg 57%
    17:00 +13°C° 0 mm 2 mps 765 mmHg 64%
    18:00 +10°C° 0 mm 2 mps 765 mmHg 72%
    19:00 +8°C° 0 mm 3 mps 765 mmHg 80%
    20:00 +7°C° 0 mm 3 mps 765 mmHg 81%
    21:00 +7°C° 0 mm 3 mps 766 mmHg 83%
    22:00 +5°C° 0 mm 3 mps 766 mmHg 84%
    23:00 +5°C° 0 mm 3 mps 765 mmHg 82%

    Tomorrow, 22 July, Saturday

    Time Temperature Precipitation Wind Pressure Humidity
    00:00 +5°C° 0 mm 4 mps 765 mmHg 80%
    01:00 +5°C° 0 mm 4 mps 765 mmHg 78%
    02:00 +5°C° 0 mm 4 mps 765 mmHg 75%
    03:00 +5°C° 0 mm 5 mps 764 mmHg 73%
    04:00 +5°C° 0 mm 5 mps 764 mmHg 70%
    05:00 +5°C° 0 mm 5 mps 764 mmHg 68%
    06:00 +5°C° 0 mm 6 mps 764 mmHg 67%
    07:00 +5°C° 0 mm 6 mps 764 mmHg 65%
    08:00 +6°C° 0 mm 7 mps 763 mmHg 62%
    09:00 +8°C° 0 mm 7 mps 763 mmHg 59%
    10:00 +9°C° 0 mm 8 mps 763 mmHg 57%
    11:00 +10°C° 0 mm 7 mps 763 mmHg 55%
    12:00 +11°C° 0 mm 7 mps 762 mmHg 53%
    13:00 +12°C° 0 mm 7 mps 761 mmHg 52%
    14:00 +11°C° 0 mm 7 mps 761 mmHg 53%
    15:00 +11°C° 0 mm 7 mps 760 mmHg 55%
    16:00 +11°C° 0 mm 7 mps 760 mmHg 56%
    17:00 +10°C° 0 mm 7 mps 760 mmHg 57%
    18:00 +10°C° 0 mm 7 mps 760 mmHg 58%
    19:00 +9°C° 0 mm 6 mps 760 mmHg 59%
    20:00 +9°C° 0 mm 6 mps 760 mmHg 58%
    21:00 +9°C° 0 mm 6 mps 760 mmHg 58%
    22:00 +10°C° 0 mm 6 mps 760 mmHg 57%
    23:00 +9°C° 0 mm 6 mps 759 mmHg 56%

    Day after tomorrow, 23 July, Sunday

    Time Temperature Precipitation Wind Pressure Humidity
    00:00 +9°C° 0 mm 6 mps 759 mmHg 56%
    01:00 +9°C° 0 mm 6 mps 758 mmHg 55%
    02:00 +9°C° 0 mm 6 mps 758 mmHg 56%
    03:00 +9°C° 0 mm 6 mps 758 mmHg 57%
    04:00 +9°C° 0 mm 5 mps 758 mmHg 58%
    05:00 +9°C° 0 mm 5 mps 758 mmHg 62%
    06:00 +8°C° 0 mm 5 mps 758 mmHg 65%
    07:00 +8°C° 0 mm 5 mps 758 mmHg 69%
    08:00 +9°C° 0 mm 5 mps 758 mmHg 68%
    09:00 +10°C° 0 mm 5 mps 758 mmHg 67%
    10:00 +12°C° 0 mm 5 mps 759 mmHg 66%
    11:00 +13°C° 0.1 mm 5 mps 758 mmHg 65%
    12:00 +14°C° 0.1 mm 5 mps 758 mmHg 64%
    13:00 +15°C° 0.1 mm 5 mps 758 mmHg 62%
    14:00 +15°C° 0.4 mm 5 mps 758 mmHg 67%
    15:00 +14°C° 0.4 mm 5 mps 757 mmHg 72%
    16:00 +14°C° 0.4 mm 5 mps 757 mmHg 77%
    17:00 +13°C° 0.5 mm 4 mps 758 mmHg 80%
    18:00 +12°C° 0.5 mm 4 mps 758 mmHg 84%
    19:00 +11°C° 0.5 mm 4 mps 758 mmHg 87%
    20:00 +11°C° 0 mm 4 mps 759 mmHg 87%
    21:00 +10°C° 0 mm 4 mps 759 mmHg 88%
    22:00 +10°C° 0 mm 4 mps 760 mmHg 89%
    23:00 +10°C° 0 mm 4 mps 760 mmHg 89%

    24 July, Monday

    Time Temperature Precipitation Wind Pressure Humidity
    00:00 +8°C° 0 mm 4 mps 760 mmHg 90%
    01:00 +9°C° 0 mm 3 mps 760 mmHg 90%
    02:00 +9°C° 0 mm 3 mps 760 mmHg 90%
    03:00 +9°C° 0 mm 3 mps 760 mmHg 91%
    04:00 +8°C° 0 mm 3 mps 761 mmHg 92%
    05:00 +8°C° 0 mm 3 mps 761 mmHg 92%
    06:00 +8°C° 0 mm 3 mps 762 mmHg 92%
    07:00 +8°C° 0 mm 3 mps 762 mmHg 92%
    08:00 +9°C° 0 mm 3 mps 762 mmHg 88%
    09:00 +10°C° 0 mm 3 mps 763 mmHg 84%
    10:00 +11°C° 0 mm 3 mps 763 mmHg 80%
    11:00 +12°C° 0 mm 3 mps 763 mmHg 75%
    12:00 +13°C° 0 mm 3 mps 762 mmHg 70%
    13:00 +14°C° 0 mm 3 mps 762 mmHg 65%
    14:00 +14°C° 0 mm 3 mps 762 mmHg 67%
    15:00 +14°C° 0 mm 3 mps 762 mmHg 69%
    16:00 +13°C° 0 mm 3 mps 761 mmHg 71%
    17:00 +13°C° 0 mm 3 mps 761 mmHg 76%
    18:00 +12°C° 0 mm 4 mps 761 mmHg 81%
    19:00 +11°C° 0 mm 4 mps 762 mmHg 86%
    20:00 +11°C° 0.1 mm 4 mps 761 mmHg 87%
    21:00 +11°C° 0.1 mm 4 mps 761 mmHg 88%
    22:00 +11°C° 0.1 mm 4 mps 761 mmHg 89%
    23:00 +11°C° 0.2 mm 4 mps 761 mmHg 89%

    25 July, Tuesday

    Time Temperature Precipitation Wind Pressure Humidity
    00:00 +11°C° 0.2 mm 4 mps 760 mmHg 89%
    01:00 +10°C° 0.2 mm 5 mps 760 mmHg 89%
    02:00 +10°C° 0.3 mm 5 mps 759 mmHg 88%
    03:00 +10°C° 0.3 mm 5 mps 759 mmHg 88%
    04:00 +10°C° 0.3 mm 5 mps 758 mmHg 87%
    05:00 +10°C° 0.1 mm 5 mps 758 mmHg 85%
    06:00 +9°C° 0.1 mm 5 mps 758 mmHg 84%
    07:00 +9°C° 0.1 mm 5 mps 758 mmHg 82%
    08:00 +10°C° 0 mm 5 mps 758 mmHg 79%
    09:00 +11°C° 0 mm 6 mps 758 mmHg 76%
    10:00 +13°C° 0 mm 6 mps 758 mmHg 72%
    11:00 +13°C° 0.1 mm 6 mps 758 mmHg 71%
    12:00 +14°C° 0.1 mm 6 mps 757 mmHg 69%
    13:00 +15°C° 0.1 mm 6 mps 757 mmHg 67%
    14:00 +14°C° 0.2 mm 6 mps 757 mmHg 69%
    15:00 +14°C° 0.2 mm 5 mps 757 mmHg 70%
    16:00 +14°C° 0.2 mm 5 mps 757 mmHg 72%
    17:00 +13°C° 0.2 mm 5 mps 757 mmHg 75%
    18:00 +12°C° 0.2 mm 5 mps 758 mmHg 77%
    19:00 +10°C° 0.2 mm 5 mps 758 mmHg 80%
    20:00 +10°C° 0 mm 5 mps 758 mmHg 81%
    21:00 +9°C° 0 mm 5 mps 759 mmHg 81%
    22:00 +9°C° 0 mm 6 mps 759 mmHg 82%
    23:00 +9°C° 0.1 mm 5 mps 759 mmHg 83%

    26 July, Wednesday

    Time Temperature Precipitation Wind Pressure Humidity
    00:00 +9°C° 0.1 mm 5 mps 760 mmHg 83%
    01:00 +8°C° 0.1 mm 5 mps 760 mmHg 84%
    02:00 +8°C° 0.1 mm 5 mps 760 mmHg 85%
    03:00 +7°C° 0.1 mm 4 mps 761 mmHg 86%
    04:00 +7°C° 0.1 mm 4 mps 761 mmHg 88%
    05:00 +8°C° 0.1 mm 3 mps 761 mmHg 89%
    06:00 +8°C° 0.1 mm 3 mps 762 mmHg 89%
    07:00 +7°C° 0.1 mm 3 mps 762 mmHg 90%
    08:00 +8°C° 0 mm 3 mps 763 mmHg 86%
    09:00 +10°C° 0 mm 3 mps 763 mmHg 81%
    10:00 +11°C° 0 mm 4 mps 764 mmHg 77%
    11:00 +12°C° 0.2 mm 4 mps 764 mmHg 74%
    12:00 +12°C° 0.2 mm 4 mps 764 mmHg 71%
    13:00 +13°C° 0.2 mm 4 mps 764 mmHg 68%
    14:00 +13°C° 0.2 mm 4 mps 764 mmHg 69%
    15:00 +12°C° 0.2 mm 4 mps 764 mmHg 70%
    16:00 +12°C° 0.2 mm 4 mps 765 mmHg 71%
    17:00 +11°C° 0.1 mm 3 mps 765 mmHg 77%
    18:00 +9°C° 0.1 mm 3 mps 766 mmHg 84%
    19:00 +8°C° 0.1 mm 2 mps 767 mmHg 90%
    20:00 +7°C° 0 mm 2 mps 767 mmHg 90%
    21:00 +7°C° 0 mm 2 mps 768 mmHg 90%
    22:00 +7°C° 0 mm 2 mps 768 mmHg 91%
    23:00 +6°C° 0 mm 2 mps 768 mmHg 91%
    Show more